User: anonymous   Login
Location: Drummondville
(45.8830°N, 72.4830°W)
Time: 16:28:04
(UTC-04:00)
Language:

Vanguard 1 Rocket - Orbit

View from above orbital plane
View from above orbital plane
View from above satellite
View from above satellite

Ground track
Ground track

The orbit data is extracted from the following two-line orbital elements,

1 00016U 58002A   18201.54014196  .00000188  00000-0  25172-3 0  9991
2 00016  34.2668   9.9645 2026624 175.0118 187.4414 10.48667298385552
Epoch (UTC): 20 July 2018 12:57:48
Eccentricity: 0.2026624
inclination: 34.2668°
perigee height: 652 km
apogee height: 4225 km
right ascension of ascending node: 9.9645°
argument of perigee: 175.0118°
revolutions per day: 10.48667298
mean anomaly at epoch: 187.4414°
orbit number at epoch: 38555

The dashed part of the orbit path shows where the satellite is in the earth's shadow,  

DLR